Location: Cerezo de Arriba
(41.2389°N, 3.5585°W)
Time: 04:30:01
(UTC+00:00)

Cosmos 1346 Rocket - Pass Details

Date: 19 May 2025
Orbit: 485 x 499 km, 81.2° (Epoch: 23 June)

Event Time Altitude Azimuth Distance (km) Brightness Sun altitude
Rises 21:09:00 0° 353° (N) 2,580 7.1 -15.7°
Reaches altitude 10° 21:11:09 10° 357° (N) 1,690 6.0 -16.0°
Maximum altitude 21:14:49 62° 79° (ENE) 557 2.6 -16.5°
Enters shadow 21:16:00 38° 143° (SE) 756 3.0 -16.6°
